Location: Hall+in+Tirol
(47.2830°N, 11.5170°E)
Time: 03:29:51
(UTC+02:00)

Daily predictions for brighter satellites

Satellite Brightness Start Highest point End
(mag) Time Altitude Azimuth Time Altitude Azimuth Time Altitude Azimuth
ATLAS 3B R/B 4.4 00:03:25 10° NNW 00:07:23 28° N 00:07:23 28° N
ATLAS 2AS CENTAUR R/B 4.2 02:05:40 37° NE 02:05:40 37° NE 02:10:13 10° NE
CENTAUR R/B 4.4 02:43:46 10° NW 02:50:22 33° NNE 02:57:31 10° E
Cosmos 2344 4.3 02:57:42 45° E 02:57:42 45° E 03:04:59 10° NE
NOSS 3-4 (A) 4.3 03:34:04 46° E 03:34:04 46° E 03:39:19 10° NE
NOSS 3-4 (C) 4.3 03:34:09 45° E 03:34:09 45° E 03:39:25 10° NE
SL-16 R/B 3.3 03:41:09 44° N 03:41:09 44° N 03:45:16 10° NNW
CZ-2D R/B 3.4 03:34:18 10° NNE 03:37:58 37° ENE 03:37:58 37° ENE
Resurs 1-4 Rocket 3.0 03:47:03 10° NNE 03:51:05 47° NE 03:51:05 47° NE
SL-16 R/B 3.0 03:47:18 10° NNW 03:52:50 48° NE 03:58:18 10° SE
Cosmos 2219 4.4 03:55:04 35° N 03:55:04 35° N 03:58:34 10° NNE
ATLAS 2AS CENTAUR R/B 3.8 03:53:06 38° NW 03:53:56 39° NNW 04:01:28 10° NE
Cosmos 2227 Rocket 2.5 04:06:02 63° ENE 04:06:02 63° ENE 04:11:04 10° NNE
ARIANE 5 R/B 3.4 04:04:29 10° NNE 04:07:54 43° N 04:07:54 43° N
GEOS 3 Rocket 4.4 04:05:04 10° NNE 04:08:54 44° N 04:08:54 44° N
Lacrosse 5 rocket 3.3 04:14:18 28° N 04:14:18 28° N 04:17:10 10° NE
Cosmos 2297 Rocket 2.5 04:13:58 58° ESE 04:14:06 58° ESE 04:19:40 10° NNE
Okean O Rocket 3.1 04:15:50 10° NNE 04:19:47 32° E 04:20:32 30° ESE
MOZ.5/SAFIR/RUBIN 5/SL-8 4.3 04:21:29 60° ENE 04:21:29 60° ENE 04:26:05 10° N
Meteor 1-13 Rocket 4.1 04:28:02 84° S 04:28:14 89° E 04:33:57 10° NNE
Lacrosse 5 1.9 04:35:24 73° N 04:35:24 73° N 04:40:10 10° NE
CZ-4B R/B 4.5 04:33:28 10° NNE 04:37:36 37° E 04:39:56 22° SSE
USA 215 3.5 04:33:45 10° SSE 04:39:11 47° SSW 04:39:11 47° SSW
CENTAUR R/B 3.1 04:34:26 10° NW 04:42:10 83° NE 04:50:30 10° SE
ADEOS II 4.2 04:38:14 10° NE 04:42:34 25° E 04:46:52 10° SSE
ERS-2 4.3 04:42:40 10° N 04:43:50 18° N 04:43:50 18° N
Cosmos 2082 3.6 04:48:15 62° W 04:48:37 64° WNW 04:54:14 10° NNE
UNKNOWN OBJECT B 4.2 04:44:41 10° N 04:46:59 32° N 04:46:59 32° N
Cosmos 2173 Rocket 4.1 04:42:34 10° N 04:48:42 75° E 04:54:50 10° SSE
Cosmos 1727 Rocket 3.9 04:49:57 53° SW 04:51:20 67° W 04:57:40 10° N
Okean 2 3.7 04:51:18 56° SE 04:51:52 63° E 04:55:58 10° NNE
BREEZE-M DEB (TANK) 3.7 04:52:20 39° SSE 04:52:20 39° SSE 04:54:43 10° E
Cosmos 1459 Rocket 4.0 04:46:03 10° N 04:52:28 82° E 04:58:46 10° S
Cosmos 2298 Rocket 4.2 04:56:16 36° S 04:58:27 72° ESE 05:03:46 10° NNE
PAYLOAD B 4.4 04:56:13 10° NNE 05:01:44 71° ESE 05:06:06 17° S
Cosmos 1346 Rocket 2.7 05:05:12 74° NW 05:05:12 74° NW 05:09:05 10° N
EXPRESS MD2 3.9 05:11:14 39° S 05:11:14 39° S 05:15:06 10° SE
Cosmos 1174 4.1 05:11:32 41° SE 05:11:32 41° SE 05:13:48 10° SE
Cosmos 2344 4.2 05:07:43 33° W 05:11:15 51° NW 05:20:33 10° NE
Cosmos 2150 Rocket 4.0 05:08:56 30° SSW 05:11:32 81° ESE 05:16:43 10° NNE
Thor Agena Rocket 3.6 05:08:12 10° SSE 05:13:30 83° ENE 05:18:49 10° NNW
CZ-4B R/B 3.2 05:10:32 10° NNE 05:15:59 86° ESE 05:20:54 13° SSW
Cosmos 2058 Rocket 2.9 05:11:53 10° NNW 05:16:12 62° W 05:17:59 33° SSW
Meteor 1-15 Rocket 4.1 05:10:55 10° NNW 05:16:28 67° W 05:22:02 10° S
Cosmos 1025 Rocket 3.6 05:19:38 38° WNW 05:19:38 38° WNW 05:23:15 10° N
CZ-2D R/B 3.0 05:14:48 10° N 05:19:13 28° WNW 05:19:17 28° WNW
RESURS DK-1 3.2 05:19:33 34° NW 05:19:33 34° NW 05:23:13 10° NNE
PSLV R/B 4.0 05:18:15 10° N 05:22:17 54° WNW 05:22:55 48° WSW
ASTRO F (AKARI) 4.3 05:20:04 10° SSE 05:23:16 80° ENE 05:26:38 10° NNW
SL-16 R/B 4.3 05:26:15 14° NW 05:26:15 14° NW 05:27:39 10° NW
NOSS 3-4 (A) 4.1 05:21:31 31° W 05:24:03 44° NW 05:30:26 10° NE
NOSS 3-4 (C) 4.1 05:21:36 31° W 05:24:09 45° NW 05:30:33 10° NE
CZ-2C R/B 4.0 05:23:18 31° SSW 05:25:01 45° W 05:29:32 10° NNW
IRS-1C Rocket 4.1 05:20:52 10° N 05:26:07 64° WNW 05:29:18 24° SW
Okean-O 3.3 05:25:48 10° NNE 05:30:11 55° E 05:34:31 10° S
Cosmos 1898 Rocket 3.5 05:28:38 27° SW 05:31:34 66° WNW 05:36:51 10° NNE
Resurs 1-4 Rocket 3.3 05:27:41 10° N 05:31:46 23° WNW 05:32:10 23° WNW
Meteor 2-4 Rocket 4.0 05:31:43 24° SW 05:35:03 49° WNW 05:40:50 10° N
AVUM R/B 3.9 05:34:13 17° N 05:35:43 37° NE 05:37:54 10° SE
Cosmos 1515 4.2 05:32:12 10° S 05:35:59 61° E 05:39:46 10° NNE
Meteor 1-31 Rocket 4.5 05:32:32 10° NNE 05:36:09 35° E 05:39:46 10° SSE
SL-16 R/B 2.9 05:31:49 10° NW 05:36:43 30° WSW 05:41:35 10° SSW
USA 129 4.3 05:35:44 10° SE 05:36:20 15° ESE 05:36:20 15° ESE
Cosmos 858 Rocket 4.5 05:34:51 22° SW 05:38:13 65° WNW 05:43:31 10° NNE
Cosmos 1937 Rocket 3.4 05:35:23 17° SSW 05:39:32 77° WNW 05:44:52 10° NNE
Cosmos 2098 Rocket 3.1 05:36:10 10° NNW 05:40:09 62° W 05:45:15 10° S
Cosmos 1626 Rocket 3.5 05:38:39 10° S 05:43:00 85° ESE 05:47:22 10° N
Cosmos 1340 4.3 05:39:53 10° SSE 05:43:24 36° E 05:46:55 10° NNE
Tiangong 1 2.1 05:45:14 27° SSW 05:45:29 28° SSW 05:48:08 10° SE
DELTA 2 R/B (1) 4.4 05:43:54 22° SW 05:46:49 38° S 05:51:56 10° ESE
ARIANE 5 R/B 4.3 05:45:27 10° NNW 05:47:56 14° NW 05:48:14 14° WNW
Meteor PRIRODA 3.8 05:45:33 10° NNE 05:49:18 75° ESE 05:52:59 10° S
BREEZE-M DEB (TANK) 4.4 05:46:49 22° WNW 05:49:27 85° SSW 06:01:07 10° ESE
Cosmos 2233 Rocket 4.3 05:43:35 10° N 05:49:53 70° E 05:56:04 10° SSE
Cosmos 2227 Rocket 3.4 05:47:52 20° WNW 05:50:01 25° NW 05:54:40 10° N
Lacrosse 5 rocket 3.3 05:50:02 11° NW 05:53:27 23° N 05:56:59 10° NE
DNEPR-1 R/B 4.4 05:49:48 10° NNW 05:54:57 58° NE 05:59:19 10° SE
Okean O Rocket 2.5 05:52:18 10° N 05:56:06 29° WNW 05:57:59 21° WSW
Cosmos 2297 Rocket 3.2 05:55:48 20° W 05:58:31 28° NW 06:03:22 10° N
CZ-4B R/B 4.2 05:58:10 10° NNE 06:02:04 63° ESE 06:05:46 10° S
Cosmos 1802 Rocket 4.5 05:58:05 10° NNW 06:03:37 36° W 06:09:05 10° SSW
PSLV R/B 3.8 06:03:14 10° N 06:07:25 49° WNW 06:11:33 10° SW
MOS 1 Rocket 3.5 06:02:48 10° NNE 06:07:41 87° ESE 06:12:50 10° SSW
Cosmos 1602 Rocket 3.7 06:03:35 10° SSW 06:07:55 54° WNW 06:12:16 10° N
Cosmos 1725 Rocket 4.1 06:02:48 10° NNW 06:08:56 57° W 06:15:01 10° SSW
Cosmos 2228 4.1 06:08:10 10° NW 06:11:39 23° W 06:15:07 10° SW
CZ-4B R/B 4.1 06:08:54 10° N 06:12:38 27° WNW 06:16:08 11° WSW
Cosmos 2084 Rocket 3.4 06:09:11 10° NW 06:12:57 50° SW 06:16:51 10° SSE
Cosmos 1943 3.1 06:11:35 10° NNW 06:17:14 79° WSW 06:22:51 10° SSE
SKYMED 2 3.8 06:13:36 10° SSE 06:17:56 76° ENE 06:22:17 10° N
Lacrosse 5 3.0 06:14:37 12° WNW 06:18:40 31° NNW 06:23:12 10° NE
ADEOS Rocket 3.6 06:13:07 10° N 06:19:53 47° WNW 06:26:00 10° SW
COBE Rocket 3.8 06:16:35 10° N 06:21:22 70° WNW 06:26:00 10° SSW
ADEOS II 2.3 06:17:29 10° N 06:22:33 49° WNW 06:27:36 10° SW
SeaSat 1 3.7 06:18:44 10° SE 06:23:24 44° NE 06:28:06 10° NNW
Cosmos 1603 4.4 06:19:35 10° NW 06:24:38 33° WSW 06:29:37 10° SSW
Meteor 1-22 Rocket 4.2 06:21:32 10° NNW 06:27:02 72° W 06:32:44 10° S
Cosmos 2263 Rocket 3.0 06:24:23 10° S 06:29:47 54° ESE 06:35:12 10° NE
Cosmos 1812 Rocket 4.2 06:25:56 10° NNW 06:29:58 34° W 06:34:00 10° SSW
CENTAUR R/B 3.8 06:25:53 10° NW 06:32:23 29° WSW 06:39:11 10° SSW
Cosmos-2242 4.2 06:34:17 10° N 06:38:35 50° ENE 06:42:49 10° SSE
Ariane Rocket 3.2 06:38:12 10° NNE 06:43:21 81° ESE 06:48:28 10° SSW
Cosmos 1048 Rocket 4.2 06:38:25 10° NNW 06:43:23 49° WSW 06:48:17 10° S
COSMOS 2406 4.4 06:39:11 10° NNW 06:44:40 47° NE 06:50:06 10° SE
